Weather History for Fairbanks, AK

Change the Weather History Date:

Saturday, May 3, 2014

  Actual Average Record
Temperature  
Mean Temperature 58 °F 44 °F  
Max Temperature 72 °F 55 °F 72 °F (2014)
Min Temperature 43 °F 32 °F 0 °F (1945)
Degree Days  
Heating Degree Days 7 21  
Month to date heating degree days 29 65  
Since 1 July heating degree days 11922 13089  
Cooling Degree Days 0 0  
Month to date cooling degree days 0 0  
Year to date cooling degree days 0 0  
Growing Degree Days 8 (Base 50)    
Moisture  
Dew Point 32 °F    
Average Humidity 36    
Maximum Humidity 66    
Minimum Humidity 15    
Precipitation  
Precipitation 0.00 in 0.02 in 0.35 in (1923)
Month to date precipitation 0.00 0.05  
Year to date precipitation 1.03 1.61  
Snow  
Snow 0.00 in 0.10 in 3.00 in (1923)
Month to date snowfall 0.0 0.2  
Since 1 July snowfall 48.9 64.3  
Snow Depth 0.00 in    
Sea Level Pressure  
Sea Level Pressure 29.99 in    
Wind  
Wind Speed 5 mph (NNW)    
Max Wind Speed 12 mph    
Max Gust Speed -    
Visibility 10 miles    
Events      
T = Trace of Precipitation, MM = Missing Value Source: NWS Daily Summary

Daily Weather History Graph

Daily Weather History Graph

Search for Another Location

Airport:

Trip Planner

Search our weather history database for the weather conditions in past years. The results will help you decide how hot, cold, wet, or windy it might be!

Date:

Astronomy

May. 03, 2014 Rise Set
Actual Time 5:10 AM AKDT 10:28 PM AKDT
Civil Twilight 3:53 AM AKDT 11:47 PM AKDT
Nautical Twilight Sun does not rise Sun does not rise
Astronomical Twilight Sun does not rise Sun does not rise
Moon 8:27 AM AKDT (5/3) 2:18 AM AKDT (5/3)
Length of Visible Light 19h 53m
Length of Day
17h 17m
Waxing Crescent, 21% of the Moon is Illuminated
May 3
Waxing Crescent
May 6
First Quarter
May 14
Full
May 21
Last Quarter
May 28
New

Hourly Weather History & Observations

Time (AKDT) Temp. Windchill Dew Point Humidity Pressure Visibility Wind Dir Wind Speed Gust Speed Precip Events Conditions
12:53 AM 57.0 °F - 30.0 °F 36% 30.14 in 10.0 mi ENE 9.2 mph - N/A   Scattered Clouds
1:53 AM 54.0 °F - 28.9 °F 38% 30.13 in 10.0 mi ENE 6.9 mph - N/A   Scattered Clouds
2:53 AM 50.0 °F - 30.9 °F 48% 30.12 in 10.0 mi NNE 5.8 mph - N/A   Scattered Clouds
3:53 AM 46.9 °F - 28.9 °F 50% 30.11 in 10.0 mi ENE 5.8 mph - N/A   Scattered Clouds
4:53 AM 46.0 °F 43.1 °F 30.0 °F 54% 30.09 in 10.0 mi NE 5.8 mph - N/A   Scattered Clouds
5:53 AM 43.0 °F 38.8 °F 32.0 °F 65% 30.09 in 10.0 mi NE 6.9 mph - N/A   Scattered Clouds
6:53 AM 48.0 °F - 30.9 °F 52% 30.07 in 10.0 mi Calm Calm - N/A   Partly Cloudy
7:53 AM 54.0 °F - 32.0 °F 43% 30.06 in 10.0 mi NNE 3.5 mph - N/A   Partly Cloudy
8:53 AM 55.9 °F - 30.9 °F 39% 30.06 in 10.0 mi Calm Calm - N/A   Partly Cloudy
9:53 AM 60.1 °F - 32.0 °F 35% 30.04 in 10.0 mi Calm Calm - N/A   Partly Cloudy
10:53 AM 64.0 °F - 32.0 °F 30% 30.03 in 10.0 mi Calm Calm - N/A   Partly Cloudy
11:53 AM 66.0 °F - 33.1 °F 29% 30.01 in 10.0 mi Calm Calm - N/A   Partly Cloudy
12:53 PM 68.0 °F - 33.1 °F 27% 29.99 in 10.0 mi NE 4.6 mph - N/A   Partly Cloudy
1:53 PM 71.1 °F - 32.0 °F 24% 29.96 in 10.0 mi NNW 4.6 mph - N/A   Partly Cloudy
2:53 PM 70.0 °F - 33.1 °F 26% 29.94 in 10.0 mi SW 8.1 mph - N/A   Partly Cloudy
3:53 PM 71.1 °F - 33.1 °F 25% 29.92 in 10.0 mi WSW 11.5 mph - N/A   Clear
4:53 PM 72.0 °F - 34.0 °F 25% 29.90 in 10.0 mi WSW 6.9 mph - N/A   Partly Cloudy
5:53 PM 72.0 °F - 30.9 °F 22% 29.88 in 10.0 mi SW 5.8 mph - N/A   Scattered Clouds
6:53 PM 72.0 °F - 32.0 °F 23% 29.87 in 10.0 mi WSW 10.4 mph - N/A   Scattered Clouds
7:53 PM 70.0 °F - 34.0 °F 27% 29.86 in 10.0 mi West 11.5 mph - N/A   Scattered Clouds
8:53 PM 68.0 °F - 34.0 °F 28% 29.86 in 10.0 mi WNW 5.8 mph - N/A   Scattered Clouds
9:53 PM 61.0 °F - 35.1 °F 38% 29.86 in 10.0 mi Calm Calm - N/A   Mostly Cloudy
10:53 PM 51.1 °F - 39.9 °F 66% 29.86 in 10.0 mi Calm Calm - N/A   Mostly Cloudy
11:53 PM 51.1 °F - 37.0 °F 59% 29.85 in 10.0 mi Calm Calm - N/A   Mostly Cloudy